User: anonymous   Login
Location: Red Deer
(52.2681°N, 113.8112°W)
Time: 12:06:02
(UTC-06:00)
Language:

EO-88 - Orbit

View from above orbital plane
View from above orbital plane
View from above satellite
View from above satellite

Ground track
Ground track

The orbit data is extracted from the following two-line orbital elements,

1 42017U 17008BX  22136.40866858  .00019593  00000-0  60584-3 0  9992
2 42017  97.2707 203.0064 0004638  20.9459 339.1973 15.33531156292161
Epoch (UTC): 16 May 2022 09:48:28
Eccentricity: 0.0004638
inclination: 97.2707°
perigee height: 462 km
apogee height: 468 km
right ascension of ascending node: 203.0064°
argument of perigee: 20.9459°
revolutions per day: 15.33531156
mean anomaly at epoch: 339.1973°
orbit number at epoch: 29216

The dashed part of the orbit path shows where the satellite is in the earth's shadow,  

DLR